[[{"header":{"parameterUnit":"m.s-1","parameterCategory":1,"la1":30.2991,"la2":30.254,"lo1":-89.0895,"lo2":-89.0444,"dy":0.0017,"dx":0.0017,"nx":28,"ny":28,"refTime":"2024-06-20T09:00:00:Z","depth":0,"parameterNumber":2,"parameterNumberName":"U-component_of_WINDS"},"data":[0,0,0,0,0,0,0,0,0,0,0,0,0,0,0,0,0,0,0,0,0,0,0,0,0,0,0,0,0,0,0,0,0,0,0,0,0,0,0,0,0,0,0,0,0,0,0,0,0,0,0,0,0,0,0,0,0,0,-4.0903,-4.0904,0,-4.0984,-4.0985,-4.0986,-4.0891,-4.0887,-4.0884,-4.088,-4.0967,-4.0972,-4.0978,0,0,0,0,0,0,0,0,0,0,0,0,0,-4.0667,-4.0672,-4.0903,-4.0904,-4.0905,-4.0984,-4.0985,-4.0987,-4.0891,-4.0887,-4.0883,-4.0879,-4.0965,-4.0972,-4.0978,0,0,0,0,0,0,0,0,0,0,0,0,0,-4.0761,-4.0673,-4.0903,-4.0867,-4.0865,-4.0984,-4.0985,-4.0987,-4.0892,-4.0887,-4.0881,-4.0876,-4.0963,-4.0971,-4.0979,-4.1139,0,0,-4.1005,-4.1009,0,0,0,0,0,0,0,0,-4.0756,-4.077,-4.0871,-4.087,-4.0867,-4.0922,-4.0934,-4.1038,-4.0894,-4.0882,-4.088,-4.0874,-4.0956,-4.0965,-4.0992,-4.1143,-4.1147,-4.1006,-4.1011,-4.1015,-4.1017,0,0,0,0,0,0,0,-4.0749,-4.0766,-4.0935,-4.0873,-4.087,-4.0847,-4.0855,-4.0953,-4.0948,-4.0882,-4.0876,-4.0886,-4.0954,-4.0984,-4.0994,-4.1148,-4.1006,-4.1013,-4.1018,-4.1022,-4.1433,-4.1439,0,0,0,0,0,0,-4.0747,-4.0761,-4.0933,-4.0938,-4.0797,-4.0856,-4.0864,-4.091,-4.0947,-4.0947,-4.0891,-4.0882,-4.0972,-4.0984,-4.0996,-4.1186,-4.1015,-4.1023,-4.1027,-4.1428,-4.1435,-4.1441,0,0,0,0,0,0,-4.0742,-4.0763,-4.0929,-4.0848,-4.0867,-4.0866,-4.0918,-4.0914,-4.0944,-4.0953,-4.0952,-4.0923,-4.0969,-4.0984,-4.1104,-4.1188,-4.1026,-4.1034,-4.1421,-4.143,-4.1438,-4.1567,0,0,0,0,0,0,-4.0736,-4.0762,-4.0822,-4.085,-4.0872,-4.1036,-4.0923,-4.092,-4.0959,-4.0947,-4.0983,-4.0983,-4.0966,-4.1092,-4.1112,-4.1196,-4.1041,-4.1413,-4.1425,-4.1435,-4.1555,-4.1579,-4.1599,0,0,0,0,0,-4.0727,-4.0856,-4.0826,-4.0847,-4.0947,-4.1041,-4.1054,-4.103,-4.0966,-4.1027,-4.1032,-4.0982,-4.1174,-4.1105,-4.1127,-4.1215,-4.1408,-4.1421,-4.1434,-4.1545,-4.1574,-4.1599,0,0,0,0,0,0,-4.0841,-4.0859,-4.0826,-4.0967,-4.1003,-4.1024,-4.1101,-4.1061,-4.1117,-4.1104,-4.1073,-4.1081,-4.1209,-4.1223,-4.1145,-4.1371,-4.1281,-4.1299,-4.1358,-4.1385,-4.1407,-4.1402,-4.1048,0,0,0,0,0,-4.0882,-4.0955,-4.0968,-4.1091,-4.1111,-4.1103,-4.1143,-4.1121,-4.1157,-4.1172,-4.1187,-4.1225,-4.1293,-4.134,-4.1403,-4.1556,-4.1563,-4.1627,-4.1649,-4.1667,-4.1684,-4.1766,-4.1795,-4.1484,-4.1484,-4.1484,0,0,-4.0968,-4.0987,-4.1036,-4.1115,-4.114,-4.1218,-4.1117,-4.1203,-4.1261,-4.1186,-4.13,-4.1311,-4.1351,-4.1488,-4.1549,-4.1504,-4.1771,-4.1684,-4.1698,-4.1706,-4.1783,-4.1812,-4.1839,-4.1493,-4.1492,-4.149,0,0,-4.1166,-4.1187,-4.1293,-4.1319,-4.1358,-4.1351,-4.1376,-4.1404,-4.1408,-4.1521,-4.1467,-4.1534,-4.1654,-4.1684,-4.1716,-4.1922,-4.1879,-4.1944,-4.2061,-4.2141,-4.2165,-4.2187,-4.2262,-4.2289,-4.196,-4.196,-4.1961,0,-4.1269,-4.1383,-4.1352,-4.1443,-4.1479,-4.1412,-4.1519,-4.1546,-4.1605,-4.1631,-4.1579,-4.1727,-4.1749,-4.1892,-4.1942,-4.1969,-4.1998,-4.1941,-4.2164,-4.2185,-4.2205,-4.2277,-4.2305,-4.1968,-4.1967,-4.1967,-4.1966,0,-4.1509,-4.1589,-4.1669,-4.1726,-4.177,-4.1869,-4.1852,-4.1902,-4.1875,-4.1874,-4.199,-4.2014,-4.2081,-4.2113,-4.2088,-4.2253,-4.2224,-4.2169,-4.2078,-4.2243,-4.231,-4.2337,-4.1979,-4.1977,-4.1974,-4.1972,0,0,-4.1784,-4.1819,-4.185,-4.1874,-4.191,-4.1972,-4.2067,-4.2131,-4.2174,-4.2216,-4.2295,-4.2396,-4.2345,-4.238,-4.2358,-4.2428,-4.2592,-4.2364,-4.2365,-4.2408,-4.2776,-4.2819,-4.2851,-4.2561,-4.2567,-4.2571,-4.2773,0,-4.1983,-4.2147,-4.212,-4.2279,-4.2352,-4.2288,-4.2371,-4.2402,-4.2403,-4.2466,-4.2467,-4.254,-4.2466,-4.2487,-4.2553,-4.2558,-4.2666,-4.2543,-4.2637,-4.2641,-4.2632,-4.2885,-4.2932,-4.3121,-4.2798,-4.2803,-4.2806,0,-4.2239,-4.2288,-4.2454,-4.2477,-4.2507,-4.2582,-4.2638,-4.2699,-4.2733,-4.2728,-4.2767,-4.2732,-4.2826,-4.2731,-4.2862,-4.2779,-4.2816,-4.2824,-4.283,-4.2841,-4.2736,-4.2905,-4.3181,-4.3211,-4.2846,-4.2843,-4.284,0,-4.2425,-4.2532,-4.2645,-4.2668,-4.2698,-4.2752,-4.2767,-4.2796,-4.2836,-4.2885,-4.2911,-4.2971,-4.3004,-4.3052,-4.3034,-4.2966,-4.3169,-4.3072,-4.3169,-4.317,-4.3217,-4.3215,-4.3506,-4.3237,-4.3237,-4.3236,-4.3235,0,-4.2652,-4.2757,-4.2729,-4.2799,-4.2914,-4.2882,-4.2996,-4.3004,-4.3029,-4.31,-4.3047,-4.3115,-4.3085,-4.3151,-4.3137,-4.3248,-4.3263,-4.3264,-4.3259,-4.327,-4.327,-4.3296,-4.3283,-4.3244,-4.3242,-4.324,-4.3239,0,-4.2881,-4.2867,-4.2986,-4.3003,-4.301,-4.3094,-4.311,-4.3175,-4.317,-4.326,-4.328,-4.3273,-4.3348,-4.3333,-4.3415,-4.3406,-4.3546,-4.3524,-4.3534,-4.353,-4.3629,-4.3621,-4.3949,-4.399,-4.3692,-4.3695,-4.3697,0,-4.3029,-4.3107,-4.3132,-4.3175,-4.3194,-4.3264,-4.3303,-4.3274,-4.3318,-4.3361,-4.3422,-4.3491,-4.3545,-4.3667,-4.367,-4.3733,-4.3713,-4.3824,-4.3723,-4.3731,-4.3717,-4.3714,-4.3722,-4.3845,-4.3848,-4.3851,-4.3853,0,-4.3292,-4.3281,-4.334,-4.3396,-4.3445,-4.3488,-4.3527,-4.3565,-4.3538,-4.359,-4.3665,-4.3706,-4.3789,-4.3859,-4.3917,-4.3933,-4.389,-4.3884,-4.3911,-4.3924,-4.3928,-4.3929,-4.3592,-4.3878,-4.3876,-4.3874,-4.3872,-4.3871,-4.3487,-4.3553,-4.3581,-4.3648,-4.3673,-4.371,-4.3772,-4.3774,-4.3835,-4.39,-4.3878,-4.3963,-4.3994,-4.4067,-4.4089,-4.4156,-4.4115,-4.4152,-4.4162,-4.4173,-4.4186,-4.3914,-4.4166,-4.4165,-4.4165,-4.4164,-4.4163,0,-4.3749,-4.3763,-4.3825,-4.3879,-4.3932,-4.3883,-4.3923,-4.3971,-4.4046,-4.4078,-4.4131,-4.4217,-4.4283,-4.4291,-4.4354,-4.4406,-4.4388,-4.4424,-4.4421,-4.4426,-4.4218,-4.419,-4.4438,-4.4438,-4.4438,-4.4437,-4.4437,-4.4437,-4.3892,-4.4003,-4.3994,-4.4116,-4.4129,-4.4211,-4.4238,-4.4271,-4.4296,-4.4393,-4.4448,-4.4451,-4.4473,-4.4537,-4.4597,-4.4597,-4.4624,-4.4668,-4.4662,-4.4468,-4.4441,-4.4415,-4.4388,-4.4674,-4.4674,-4.4864,-4.4866,-4.4867]},{"header":{"parameterUnit":"m.s-1","parameterCategory":1,"la1":30.2991,"la2":30.254,"lo1":-89.0895,"lo2":-89.0444,"dy":0.0017,"dx":0.0017,"nx":28,"ny":28,"refTime":"2024-06-20T09:00:00:Z","depth":0,"parameterNumber":3,"parameterNumberName":"V-component_of_WINDS"},"data":[0,0,0,0,0,0,0,0,0,0,0,0,0,0,0,0,0,0,0,0,0,0,0,0,0,0,0,0,0,0,0,0,0,0,0,0,0,0,0,0,0,0,0,0,0,0,0,0,0,0,0,0,0,0,0,0,0,0,-3.7294,-3.7294,0,-3.7288,-3.7288,-3.7288,-3.7215,-3.7213,-3.7211,-3.721,-3.7203,-3.7205,-3.7206,0,0,0,0,0,0,0,0,0,0,0,0,0,-3.7244,-3.7245,-3.7294,-3.7294,-3.7294,-3.7288,-3.7288,-3.7288,-3.7215,-3.7213,-3.7211,-3.7209,-3.7203,-3.7205,-3.7207,0,0,0,0,0,0,0,0,0,0,0,0,0,-3.7254,-3.7245,-3.7294,-3.7257,-3.7254,-3.7288,-3.7288,-3.7288,-3.7216,-3.7213,-3.721,-3.7208,-3.7202,-3.7205,-3.7207,-3.7276,0,0,-3.7214,-3.7215,0,0,0,0,0,0,0,0,-3.7254,-3.7256,-3.7263,-3.726,-3.7256,-3.7249,-3.7267,-3.7284,-3.7217,-3.723,-3.721,-3.7207,-3.7221,-3.7222,-3.7226,-3.7275,-3.7275,-3.7214,-3.7215,-3.7216,-3.7217,0,0,0,0,0,0,0,-3.7253,-3.7256,-3.7292,-3.7263,-3.7259,-3.7241,-3.7239,-3.727,-3.7241,-3.7229,-3.7224,-3.7224,-3.7219,-3.7224,-3.7226,-3.7275,-3.7214,-3.7216,-3.7217,-3.7218,-3.7378,-3.738,0,0,0,0,0,0,-3.7257,-3.7256,-3.7292,-3.7292,-3.7248,-3.7244,-3.7242,-3.7254,-3.7241,-3.7236,-3.7226,-3.7221,-3.7222,-3.7223,-3.7225,-3.7303,-3.7216,-3.7219,-3.722,-3.7375,-3.7378,-3.7381,0,0,0,0,0,0,-3.7257,-3.7261,-3.7292,-3.7272,-3.7275,-3.7248,-3.7262,-3.7256,-3.7261,-3.7238,-3.7233,-3.7237,-3.722,-3.7222,-3.7263,-3.7302,-3.722,-3.7222,-3.7372,-3.7376,-3.738,-3.746,0,0,0,0,0,0,-3.7256,-3.7262,-3.7288,-3.7273,-3.7276,-3.7331,-3.7264,-3.7258,-3.7265,-3.7258,-3.7247,-3.7243,-3.7218,-3.726,-3.7265,-3.7303,-3.7224,-3.7368,-3.7373,-3.7379,-3.7454,-3.7467,-3.7478,0,0,0,0,0,-3.7254,-3.7311,-3.729,-3.7294,-3.7308,-3.7333,-3.7335,-3.7304,-3.7269,-3.7294,-3.728,-3.7243,-3.7297,-3.7265,-3.727,-3.731,-3.7365,-3.7372,-3.7378,-3.7449,-3.7464,-3.7478,0,0,0,0,0,0,-3.7332,-3.7309,-3.7284,-3.7339,-3.7338,-3.7321,-3.7352,-3.7322,-3.7332,-3.7324,-3.7286,-3.7284,-3.7331,-3.7324,-3.7289,-3.7374,-3.7325,-3.7333,-3.7377,-3.7391,-3.7403,-3.7403,-3.7225,0,0,0,0,0,-3.7355,-3.7377,-3.7356,-3.7406,-3.7407,-3.738,-3.739,-3.7366,-3.7364,-3.7364,-3.7352,-3.7351,-3.7367,-3.7379,-3.7393,-3.7453,-3.7449,-3.7483,-3.7495,-3.7505,-3.7511,-3.7541,-3.7555,-3.7403,-3.7402,-3.7402,0,0,-3.7404,-3.7394,-3.7411,-3.7422,-3.7418,-3.7441,-3.738,-3.7408,-3.7424,-3.7368,-3.7405,-3.7397,-3.7393,-3.7444,-3.7465,-3.744,-3.7553,-3.7513,-3.7521,-3.7522,-3.7549,-3.7563,-3.7576,-3.7407,-3.7406,-3.7405,0,0,-3.7504,-3.75,-3.754,-3.7538,-3.7533,-3.7514,-3.7524,-3.7511,-3.7503,-3.754,-3.7497,-3.7516,-3.7546,-3.7545,-3.7548,-3.7646,-3.7612,-3.7652,-3.7713,-3.7742,-3.7754,-3.7764,-3.7798,-3.781,-3.7659,-3.7659,-3.7659,0,-3.7566,-3.7599,-3.7565,-3.7594,-3.7599,-3.7549,-3.7588,-3.7588,-3.7589,-3.7593,-3.7565,-3.7599,-3.7594,-3.7642,-3.7666,-3.7671,-3.768,-3.7652,-3.7755,-3.7765,-3.7774,-3.7806,-3.7818,-3.7664,-3.7663,-3.7663,-3.7662,0,-3.7673,-3.7696,-3.7729,-3.773,-3.7739,-3.7774,-3.7745,-3.7758,-3.7733,-3.7717,-3.7755,-3.7746,-3.7757,-3.7767,-3.7744,-3.7811,-3.7795,-3.7762,-3.7711,-3.7794,-3.7823,-3.7835,-3.767,-3.7669,-3.7667,-3.7666,0,0,-3.7822,-3.7803,-3.7815,-3.7814,-3.7804,-3.7822,-3.7854,-3.7863,-3.7874,-3.7877,-3.7901,-3.7927,-3.7895,-3.7899,-3.7875,-3.7901,-3.7977,-3.7864,-3.7863,-3.7883,-3.8049,-3.8073,-3.8087,-3.7955,-3.7957,-3.7959,-3.8048,0,-3.7917,-3.797,-3.7939,-3.7996,-3.8016,-3.7968,-3.7995,-3.7992,-3.7978,-3.7993,-3.7978,-3.7995,-3.7953,-3.7955,-3.7978,-3.7963,-3.8009,-3.7956,-3.7977,-3.7978,-3.7977,-3.8103,-3.8128,-3.8213,-3.806,-3.8061,-3.8063,0,-3.8035,-3.8041,-3.8099,-3.8084,-3.8091,-3.8117,-3.8121,-3.8137,-3.8132,-3.812,-3.8124,-3.8093,-3.8122,-3.8073,-3.8112,-3.8077,-3.8083,-3.8077,-3.808,-3.8079,-3.8024,-3.8104,-3.824,-3.8252,-3.808,-3.8079,-3.8078,0,-3.8135,-3.8158,-3.8195,-3.8196,-3.818,-3.8198,-3.8192,-3.8185,-3.8192,-3.8197,-3.82,-3.8209,-3.8214,-3.8221,-3.8193,-3.816,-3.8236,-3.8184,-3.8225,-3.8226,-3.8242,-3.8241,-3.838,-3.825,-3.825,-3.8249,-3.8249,0,-3.8244,-3.8281,-3.824,-3.8263,-3.8302,-3.8267,-3.8307,-3.8296,-3.829,-3.8309,-3.8269,-3.8288,-3.8251,-3.8266,-3.8245,-3.8279,-3.8282,-3.8272,-3.8266,-3.8275,-3.8276,-3.8278,-3.8271,-3.8253,-3.8252,-3.8251,-3.8251,0,-3.8362,-3.8336,-3.8373,-3.8354,-3.835,-3.838,-3.8364,-3.8384,-3.8367,-3.8392,-3.8396,-3.8369,-3.8384,-3.8357,-3.8371,-3.8356,-3.8404,-3.8389,-3.8405,-3.84,-3.8442,-3.8438,-3.8585,-3.8602,-3.8463,-3.8464,-3.8465,0,-3.8432,-3.8459,-3.8443,-3.8452,-3.8448,-3.8465,-3.8471,-3.8437,-3.8446,-3.8441,-3.8462,-3.8474,-3.8481,-3.8509,-3.849,-3.85,-3.8484,-3.8535,-3.8485,-3.8492,-3.8482,-3.848,-3.8482,-3.8545,-3.8546,-3.8548,-3.8549,0,-3.8558,-3.8543,-3.8554,-3.856,-3.8568,-3.8571,-3.8572,-3.8582,-3.8546,-3.8558,-3.8572,-3.8578,-3.8591,-3.8603,-3.8607,-3.8601,-3.8569,-3.8565,-3.8574,-3.8583,-3.859,-3.8585,-3.8431,-3.8561,-3.856,-3.8559,-3.8558,-3.8558,-3.8653,-3.8674,-3.8665,-3.8677,-3.8674,-3.8674,-3.8691,-3.8676,-3.8688,-3.8694,-3.8674,-3.8693,-3.8686,-3.8689,-3.8686,-3.8701,-3.8678,-3.8692,-3.8696,-3.8699,-3.8705,-3.8589,-3.8702,-3.8701,-3.8701,-3.8701,-3.87,0,-3.8775,-3.8766,-3.8778,-3.8779,-3.8788,-3.8757,-3.8755,-3.8765,-3.8783,-3.8779,-3.8787,-3.8803,-3.8814,-3.8797,-3.8805,-3.882,-3.8805,-3.8823,-3.8821,-3.8819,-3.8726,-3.8716,-3.8835,-3.8835,-3.8835,-3.8835,-3.8835,-3.8835,-3.8839,-3.8872,-3.8856,-3.8887,-3.8878,-3.8896,-3.8897,-3.8897,-3.8894,-3.8914,-3.8922,-3.891,-3.8901,-3.8908,-3.8916,-3.8911,-3.8915,-3.8938,-3.8927,-3.8839,-3.8826,-3.8814,-3.8804,-3.8939,-3.8939,-3.9019,-3.902,-3.902]}]]